Flag for Algeria Weather past 2 weeks in Constantine, Algeria

Now
54 °F

Clear.


Feels Like: 52 °F
Forecast: 60 / 81 °F
Wind: 7 mph from Southeast

Location: Constantine Airport

Current Time: Apr 22, 2015 at 5:13:02 AM

Latest Report: Apr 22, 2015 at 4:30 AM


Visibility: 10 mi

Pressure: 30.21 "Hg

Humidity: 77%

Dew point: 46 °F

Location of ConstantineLocation

Historic Weather in Constantine — Graph

°F

Constantine temperature yesterday

Maximum temperature yesterday: 73 °F (at 3:00 PM)
Minimum temperature yesterday: 43 °F (at 3:30 AM)
Average temperature yesterday: 58 °F

Past Weeks' High & Low Weather Summary

 TemperatureHumidityPressure
High88 °F (Apr 18, 4:00 PM)94% (Apr 18, 5:00 AM)30.42 "Hg (Apr 18, 5:00 AM)
Low30 °F (Apr 8, 6:30 AM)17% (Apr 15, 4:00 PM)29.86 "Hg (Apr 18, 4:00 PM)
Average58 °F59%30.21 "Hg
* Reported Apr 7 3:00 AM — Apr 22 3:30 AM, Constantine, Weather by CustomWeather, © 2015

Note: Actual official high and low records may vary slightly from our data, if they occured in-between our weather recording intervals... More about our weather records

Advertising

Constantine weather history for previous 24 hours

 ConditionsComfort  
Time TempWeatherWind HumidityBarometerVisibility
3:30 AM
Wed, Apr 22
54 °FClear.7 mph72%30.21 "Hg10 mi
2:00 AM55 °FClear.7 mph67%30.21 "Hg10 mi
1:30 AM55 °FClear.7 mph67%30.24 "Hg10 mi
1:00 AM55 °FClear.7 mph67%30.24 "Hg10 mi
12:30 AM54 °FClear.5 mph72%30.21 "Hg10 mi
12:00 AM54 °FClear.5 mph72%30.21 "Hg10 mi
11:30 PM
Tue, Apr 21
55 °FClear.5 mph72%30.24 "Hg10 mi
11:00 PM55 °FClear.5 mph72%30.24 "Hg10 mi
10:30 PM57 °FClear.5 mph67%30.24 "Hg10 mi
10:00 PM57 °FClear.3 mph67%30.24 "Hg10 mi
9:30 PM59 °FClear.No wind63%30.24 "Hg10 mi
9:00 PM59 °FClear.No wind63%30.24 "Hg10 mi
8:30 PM61 °FClear.No wind59%30.21 "Hg10 mi
8:00 PM61 °FClear.No wind59%30.21 "Hg10 mi
7:30 PM64 °FClear.3 mph52%30.18 "Hg10 mi
7:00 PM66 °FSunny.3 mph49%30.18 "Hg10 mi
6:00 PM72 °FSunny.8 mph44%30.15 "Hg10 mi
5:30 PM72 °FSunny.6 mph44%30.15 "Hg10 mi
5:00 PM73 °FPassing clouds.7 mph38%30.15 "HgN/A
4:30 PM73 °FPassing clouds.8 mph38%30.18 "HgN/A
4:00 PM73 °FPassing clouds.5 mph33%30.18 "HgN/A
3:30 PM73 °FScattered clouds.5 mph31%30.18 "HgN/A
3:00 PM73 °FScattered clouds.6 mph31%30.18 "HgN/A
2:30 PM72 °FScattered clouds.6 mph36%30.18 "HgN/A
2:00 PM72 °FScattered clouds.6 mph36%30.18 "HgN/A
1:30 PM70 °FScattered clouds.8 mph38%30.21 "HgN/A
1:00 PM68 °FScattered clouds.5 mph38%30.21 "HgN/A
12:30 PM68 °FScattered clouds.6 mph35%30.21 "HgN/A
12:00 PM66 °FScattered clouds.7 mph40%30.21 "HgN/A
11:30 AM64 °FPassing clouds.8 mph46%30.24 "HgN/A
11:00 AM63 °FPassing clouds.5 mph52%30.24 "HgN/A
10:30 AM61 °FSunny.3 mph55%30.24 "Hg10 mi
10:00 AM59 °FSunny.3 mph63%30.24 "Hg10 mi
9:30 AM55 °FPassing clouds.6 mph77%30.24 "HgN/A
9:00 AM52 °FBroken clouds.6 mph82%30.24 "HgN/A
8:30 AM52 °FBroken clouds.3 mph88%30.21 "HgN/A
8:00 AM48 °FBroken clouds.2 mph87%30.21 "HgN/A
7:30 AM48 °FBroken clouds.7 mph87%30.18 "HgN/A
7:00 AM46 °FScattered clouds.7 mph93%30.24 "HgN/A
6:30 AM43 °FScattered clouds.3 mph87%30.18 "HgN/A
6:00 AM43 °FPassing clouds.3 mph87%30.18 "HgN/A
5:30 AM43 °FClear.No wind87%30.18 "Hg10 mi
5:00 AM43 °FClear.No wind87%30.18 "Hg10 mi
Weather by CustomWeather, © 2015

See weather overviewHow to use our weather pages